This is the latest recevied weather packets stored in our database for station/object OE9XVI-6. If no packets are shown the sender has not sent any weather packets the latest 1 day(s).
| Time | Temp. | Humidity | Pressure | Rain* | Wind** | Luminosity | Snow |
|---|---|---|---|---|---|---|---|
| 1777946215 | 9.44° C | 56% | 1011.9 hPa | 0 mm | 0 m/s | - | - |
| 1777945615 | 9.44° C | 54% | 1012.1 hPa | 0 mm | 0 m/s | - | - |
| 1777945015 | 9.44° C | 57% | 1012.2 hPa | 0 mm | 0 m/s | - | - |
| 1777944415 | 9.44° C | 56% | 1012.2 hPa | 0 mm | 0 m/s | - | - |
| 1777943815 | 9.44° C | 54% | 1012.3 hPa | 0 mm | 0 m/s | - | - |
| 1777943215 | 10° C | 54% | 1012.6 hPa | 0 mm | 1.34 m/s, 309° | - | - |
| 1777942615 | 10° C | 55% | 1012.6 hPa | 0 mm | 0 m/s | - | - |
| 1777942015 | 10° C | 57% | 1012.8 hPa | 0 mm | 0 m/s | - | - |
| 1777941415 | 10° C | 55% | 1013 hPa | 0 mm | 0 m/s | - | - |
| 1777940815 | 10° C | 56% | 1013 hPa | 0 mm | 0 m/s | - | - |
| 1777940215 | 10° C | 55% | 1013.2 hPa | 0 mm | 0 m/s | - | - |
| 1777939615 | 10° C | 52% | 1013.2 hPa | 0 mm | 0 m/s | - | - |
| 1777939015 | 10.56° C | 50% | 1013.2 hPa | 0 mm | 0 m/s | - | - |
| 1777938415 | 10.56° C | 51% | 1013.4 hPa | 0 mm | 0 m/s | - | - |
| 1777937815 | 10.56° C | 51% | 1013.3 hPa | 0 mm | 0 m/s | - | - |
| 1777937215 | 10.56° C | 52% | 1013.5 hPa | 0 mm | 0 m/s | - | - |
| 1777936615 | 10.56° C | 52% | 1013.7 hPa | 0 mm | 0.89 m/s, 307° | - | - |
| 1777936015 | 11.11° C | 50% | 1013.7 hPa | 0 mm | 0.45 m/s, 153° | - | - |
| 1777935415 | 11.11° C | 50% | 1013.9 hPa | 0 mm | 1.34 m/s, 300° | - | - |
| 1777934815 | 11.11° C | 49% | 1014 hPa | 0 mm | 0 m/s | - | - |
| 1777934215 | 11.11° C | 49% | 1014.1 hPa | 0 mm | 0 m/s | - | - |
| 1777933615 | 11.11° C | 48% | 1014.3 hPa | 0 mm | 0 m/s | - | - |
* Rain latest hour (hover to see other rain measurements)
** Current wind speed in m/s (hover to see current wind gust speed)